TimeCDT,TemperatureF,Dew PointF,Humidity,Sea Level PressureIn,VisibilityMPH,Wind Direction,Wind SpeedMPH,Gust SpeedMPH,PrecipitationIn,Events,Conditions,WindDirDegrees,DateUTC
12:55 AM,46.4,21.2,37,30.35,10.0,NNE,11.5,-,N/A,,Clear,30,2013-03-13 05:55:00
1:15 AM,48.2,21.2,34,30.34,10.0,NNE,15.0,-,N/A,,Clear,30,2013-03-13 06:15:00
1:35 AM,48.2,21.2,34,30.35,10.0,NNE,11.5,-,N/A,,Clear,30,2013-03-13 06:35:00
1:55 AM,48.2,21.2,34,30.35,10.0,NNE,11.5,19.6,N/A,,Clear,30,2013-03-13 06:55:00
2:15 AM,46.4,21.2,37,30.35,10.0,North,10.4,-,N/A,,Clear,10,2013-03-13 07:15:00
2:35 AM,44.6,19.4,37,30.35,10.0,NNE,11.5,-,N/A,,Clear,20,2013-03-13 07:35:00
2:55 AM,44.6,19.4,37,30.35,10.0,NNE,8.1,-,N/A,,Clear,20,2013-03-13 07:55:00
3:15 AM,41.0,19.4,42,30.35,10.0,North,9.2,-,N/A,,Clear,350,2013-03-13 08:15:00
3:55 AM,39.2,19.4,45,30.34,10.0,NNW,9.2,-,N/A,,Clear,340,2013-03-13 08:55:00
4:15 AM,39.2,19.4,45,30.34,10.0,North,8.1,-,N/A,,Clear,350,2013-03-13 09:15:00
4:35 AM,37.4,19.4,48,30.34,10.0,North,9.2,-,N/A,,Clear,350,2013-03-13 09:35:00
4:55 AM,35.6,19.4,52,30.34,10.0,North,8.1,-,N/A,,Clear,350,2013-03-13 09:55:00
5:15 AM,33.8,19.4,56,30.33,10.0,North,6.9,-,N/A,,Clear,10,2013-03-13 10:15:00
5:35 AM,35.6,19.4,52,30.34,10.0,North,6.9,-,N/A,,Clear,10,2013-03-13 10:35:00
5:55 AM,37.4,21.2,52,30.34,10.0,North,8.1,-,N/A,,Clear,360,2013-03-13 10:55:00
6:15 AM,37.4,19.4,48,30.34,10.0,North,10.4,-,N/A,,Clear,360,2013-03-13 11:15:00
6:35 AM,35.6,17.6,48,30.35,10.0,North,5.8,-,N/A,,Clear,10,2013-03-13 11:35:00
6:55 AM,35.6,21.2,56,30.35,10.0,NNE,6.9,-,N/A,,Clear,20,2013-03-13 11:55:00
7:15 AM,33.8,17.6,52,30.35,10.0,North,4.6,-,N/A,,Clear,360,2013-03-13 12:15:00
7:35 AM,33.8,17.6,52,30.36,10.0,North,6.9,-,N/A,,Clear,350,2013-03-13 12:35:00
7:55 AM,33.8,17.6,52,30.36,10.0,North,8.1,-,N/A,,Clear,350,2013-03-13 12:55:00
8:15 AM,32.0,19.4,60,30.36,10.0,North,8.1,-,N/A,,Clear,350,2013-03-13 13:15:00
8:35 AM,33.8,19.4,56,30.37,10.0,North,6.9,-,N/A,,Clear,350,2013-03-13 13:35:00
8:55 AM,35.6,21.2,56,30.38,10.0,North,4.6,-,N/A,,Clear,360,2013-03-13 13:55:00
9:15 AM,42.8,23.0,46,30.39,10.0,North,4.6,-,N/A,,Clear,10,2013-03-13 14:15:00
9:35 AM,46.4,23.0,40,30.40,10.0,North,5.8,-,N/A,,Clear,10,2013-03-13 14:35:00
9:55 AM,50.0,23.0,35,30.41,10.0,NNE,5.8,-,N/A,,Clear,20,2013-03-13 14:55:00
10:15 AM,53.6,23.0,30,30.42,10.0,NE,8.1,-,N/A,,Clear,50,2013-03-13 15:15:00
10:35 AM,55.4,21.2,26,30.42,10.0,NE,9.2,-,N/A,,Clear,50,2013-03-13 15:35:00
10:55 AM,55.4,23.0,29,30.43,10.0,NNE,6.9,-,N/A,,Clear,30,2013-03-13 15:55:00
11:15 AM,55.4,21.2,26,30.43,10.0,ESE,5.8,-,N/A,,Clear,110,2013-03-13 16:15:00
11:35 AM,57.2,24.8,29,30.43,10.0,ESE,4.6,-,N/A,,Clear,120,2013-03-13 16:35:00
11:55 AM,59.0,23.0,25,30.44,10.0,South,8.1,-,N/A,,Clear,170,2013-03-13 16:55:00
12:15 PM,60.8,23.0,23,30.44,10.0,ESE,6.9,-,N/A,,Clear,110,2013-03-13 17:15:00
12:35 PM,62.6,24.8,24,30.43,10.0,South,8.1,-,N/A,,Clear,170,2013-03-13 17:35:00
12:55 PM,62.6,23.0,22,30.42,10.0,South,8.1,-,N/A,,Clear,190,2013-03-13 17:55:00
1:15 PM,62.6,21.2,20,30.42,10.0,South,11.5,16.1,N/A,,Clear,180,2013-03-13 18:15:00
1:35 PM,64.4,23.0,21,30.41,10.0,SE,6.9,-,N/A,,Clear,140,2013-03-13 18:35:00
1:55 PM,66.2,21.2,18,30.40,10.0,South,10.4,18.4,N/A,,Clear,180,2013-03-13 18:55:00
2:15 PM,66.2,19.4,17,30.39,10.0,South,13.8,18.4,N/A,,Clear,190,2013-03-13 19:15:00
2:35 PM,66.2,19.4,17,30.38,10.0,SE,8.1,17.3,N/A,,Clear,140,2013-03-13 19:35:00
2:55 PM,66.2,17.6,15,30.36,10.0,SE,11.5,16.1,N/A,,Clear,140,2013-03-13 19:55:00
3:15 PM,69.8,19.4,15,30.35,10.0,South,11.5,16.1,N/A,,Clear,190,2013-03-13 20:15:00
3:35 PM,68.0,17.6,15,30.35,10.0,SSE,9.2,-,N/A,,Clear,150,2013-03-13 20:35:00
3:55 PM,69.8,17.6,14,30.34,10.0,South,11.5,-,N/A,,Clear,170,2013-03-13 20:55:00
4:15 PM,69.8,17.6,14,30.33,10.0,SSE,10.4,16.1,N/A,,Clear,150,2013-03-13 21:15:00
4:35 PM,69.8,17.6,14,30.33,10.0,SSE,9.2,-,N/A,,Clear,150,2013-03-13 21:35:00
4:55 PM,69.8,17.6,14,30.32,10.0,South,8.1,-,N/A,,Clear,170,2013-03-13 21:55:00
5:15 PM,69.8,17.6,14,30.32,10.0,SE,6.9,-,N/A,,Clear,140,2013-03-13 22:15:00
5:35 PM,69.8,15.8,13,30.32,10.0,South,5.8,-,N/A,,Clear,190,2013-03-13 22:35:00
5:55 PM,68.0,15.8,13,30.32,10.0,WSW,4.6,-,N/A,,Clear,240,2013-03-13 22:55:00
6:15 PM,69.8,15.8,13,30.31,10.0,SW,6.9,-,N/A,,Clear,220,2013-03-13 23:15:00
6:35 PM,68.0,15.8,13,30.31,10.0,SE,6.9,-,N/A,,Clear,140,2013-03-13 23:35:00
6:55 PM,68.0,15.8,13,30.31,10.0,SSE,5.8,-,N/A,,Clear,150,2013-03-13 23:55:00
7:15 PM,66.2,14.0,13,30.31,10.0,SE,6.9,-,N/A,,Clear,140,2013-03-14 00:15:00
7:35 PM,66.2,14.0,13,30.31,10.0,SSE,6.9,-,N/A,,Clear,150,2013-03-14 00:35:00
7:55 PM,64.4,12.2,13,30.31,10.0,SE,6.9,-,N/A,,Clear,140,2013-03-14 00:55:00
8:15 PM,59.0,12.2,16,30.31,10.0,SE,6.9,-,N/A,,Clear,140,2013-03-14 01:15:00
8:35 PM,57.2,12.2,17,30.31,10.0,SE,8.1,-,N/A,,Clear,140,2013-03-14 01:35:00
8:55 PM,57.2,12.2,17,30.31,10.0,SE,9.2,-,N/A,,Clear,140,2013-03-14 01:55:00
9:15 PM,55.4,10.4,17,30.31,10.0,SSE,8.1,-,N/A,,Clear,150,2013-03-14 02:15:00
9:35 PM,51.8,8.6,18,30.32,10.0,SE,10.4,-,N/A,,Clear,130,2013-03-14 02:35:00
9:55 PM,51.8,12.2,21,30.32,10.0,East,8.1,-,N/A,,Clear,100,2013-03-14 02:55:00
10:15 PM,48.2,12.2,24,30.33,10.0,ESE,8.1,-,N/A,,Clear,110,2013-03-14 03:15:00
10:35 PM,48.2,12.2,24,30.33,10.0,ESE,8.1,-,N/A,,Clear,110,2013-03-14 03:35:00
10:55 PM,48.2,14.0,25,30.34,10.0,ESE,6.9,-,N/A,,Clear,110,2013-03-14 03:55:00
11:15 PM,46.4,12.2,25,30.34,10.0,Calm,Calm,-,N/A,,Clear,0,2013-03-14 04:15:00
11:35 PM,48.2,17.6,30,30.34,10.0,Calm,Calm,-,N/A,,Clear,0,2013-03-14 04:35:00
11:55 PM,46.4,15.8,29,30.34,10.0,North,3.5,-,N/A,,Clear,10,2013-03-14 04:55:00